Time,TemperatureF,DewpointF,PressureIn,WindDirection,WindDirectionDegrees,WindSpeedMPH,WindSpeedGustMPH,Humidity,HourlyPrecipIn,Conditions,Clouds,dailyrainin,SoftwareType,DateUTC
2013-02-03 00:00:00,34.7,28.5,30.17,NW,317,0.0,3.0,78,0.00,,,0.04,Wunderground v.1.15,2013-02-03 05:00:00,
2013-02-03 00:03:00,34.6,28.4,30.17,NW,317,2.0,3.0,78,0.00,,,0.04,Wunderground v.1.15,2013-02-03 05:03:00,
2013-02-03 00:04:00,34.6,28.4,30.17,NW,317,4.0,4.0,78,0.00,,,0.04,Wunderground v.1.15,2013-02-03 05:04:00,
2013-02-03 00:05:00,34.6,28.4,30.17,NW,317,2.0,4.0,78,0.00,,,0.04,Wunderground v.1.15,2013-02-03 05:05:00,
2013-02-03 00:10:00,34.6,28.4,30.17,NW,316,3.0,3.0,78,0.00,,,0.00,Wunderground v.1.15,2013-02-03 05:10:00,
2013-02-03 00:15:00,34.6,28.4,30.17,NW,317,1.0,3.0,78,0.00,,,0.00,Wunderground v.1.15,2013-02-03 05:15:00,
2013-02-03 00:21:00,34.4,28.6,30.17,West,277,0.0,2.0,79,0.00,,,0.00,Wunderground v.1.15,2013-02-03 05:21:00,
2013-02-03 00:26:00,34.3,28.8,30.17,WNW,285,0.0,2.0,80,0.00,,,0.00,Wunderground v.1.15,2013-02-03 05:26:00,
2013-02-03 00:31:00,34.3,28.8,30.17,NW,305,1.0,2.0,80,0.00,,,0.00,Wunderground v.1.15,2013-02-03 05:31:00,
2013-02-03 00:36:00,34.1,28.6,30.17,NNW,330,0.0,6.0,80,0.00,,,0.00,Wunderground v.1.15,2013-02-03 05:36:00,
2013-02-03 00:41:00,34.1,28.3,30.17,NNW,330,1.0,4.0,79,0.00,,,0.00,Wunderground v.1.15,2013-02-03 05:41:00,
2013-02-03 00:47:00,34.1,28.0,30.17,NNW,330,1.0,4.0,78,0.00,,,0.00,Wunderground v.1.15,2013-02-03 05:47:00,
2013-02-03 00:52:00,34.0,27.9,30.17,NNW,330,0.0,3.0,78,0.00,,,0.00,Wunderground v.1.15,2013-02-03 05:52:00,
2013-02-03 00:57:00,34.0,27.9,30.17,NNW,330,3.0,3.0,78,0.00,,,0.00,Wunderground v.1.15,2013-02-03 05:57:00,
2013-02-03 01:02:00,34.1,28.0,30.17,NNW,330,0.0,1.0,78,0.00,,,0.00,Wunderground v.1.15,2013-02-03 06:02:00,
2013-02-03 01:08:00,34.3,27.5,30.16,NNW,330,2.0,4.0,76,0.00,,,0.00,Wunderground v.1.15,2013-02-03 06:08:00,
2013-02-03 01:13:00,34.3,27.5,30.16,NW,307,0.0,2.0,76,0.00,,,0.00,Wunderground v.1.15,2013-02-03 06:13:00,
2013-02-03 01:18:00,34.3,27.2,30.16,NW,307,3.0,3.0,75,0.00,,,0.00,Wunderground v.1.15,2013-02-03 06:18:00,
2013-02-03 01:23:00,34.4,27.0,30.15,NW,307,2.0,4.0,74,0.00,,,0.00,Wunderground v.1.15,2013-02-03 06:23:00,
2013-02-03 01:28:00,34.3,27.2,30.15,NW,307,0.0,4.0,75,0.00,,,0.00,Wunderground v.1.15,2013-02-03 06:28:00,
2013-02-03 01:34:00,34.3,27.2,30.15,WNW,300,1.0,2.0,75,0.00,,,0.00,Wunderground v.1.15,2013-02-03 06:34:00,
2013-02-03 01:40:00,34.3,27.2,30.15,WNW,300,3.0,3.0,75,0.00,,,0.00,Wunderground v.1.15,2013-02-03 06:40:00,
2013-02-03 01:45:00,34.4,27.0,30.15,WNW,303,3.0,5.0,74,0.00,,,0.00,Wunderground v.1.15,2013-02-03 06:45:00,
2013-02-03 01:50:00,34.6,27.2,30.15,NW,321,4.0,6.0,74,0.00,,,0.00,Wunderground v.1.15,2013-02-03 06:50:00,
2013-02-03 01:55:00,34.6,27.2,30.15,WNW,290,4.0,5.0,74,0.00,,,0.00,Wunderground v.1.15,2013-02-03 06:55:00,
2013-02-03 02:00:00,34.7,27.3,30.15,NW,311,4.0,4.0,74,0.00,,,0.00,Wunderground v.1.15,2013-02-03 07:00:00,
2013-02-03 02:05:00,34.6,27.2,30.15,WNW,297,7.0,8.0,74,0.00,,,0.00,Wunderground v.1.15,2013-02-03 07:05:00,
2013-02-03 02:10:00,34.9,27.1,30.14,NW,312,4.0,6.0,73,0.00,,,0.00,Wunderground v.1.15,2013-02-03 07:10:00,
2013-02-03 02:15:00,34.6,27.2,30.14,NW,307,4.0,10.0,74,0.00,,,0.00,Wunderground v.1.15,2013-02-03 07:15:00,
2013-02-03 02:20:00,34.6,27.5,30.14,NW,312,6.0,7.0,75,0.00,,,0.00,Wunderground v.1.15,2013-02-03 07:20:00,
2013-02-03 02:25:00,34.4,27.3,30.14,NW,315,3.0,9.0,75,0.00,,,0.00,Wunderground v.1.15,2013-02-03 07:25:00,
2013-02-03 02:30:00,34.4,27.3,30.14,NW,314,3.0,5.0,75,0.00,,,0.00,Wunderground v.1.15,2013-02-03 07:30:00,
2013-02-03 02:35:00,34.6,27.8,30.14,NW,319,4.0,7.0,76,0.00,,,0.00,Wunderground v.1.15,2013-02-03 07:35:00,
2013-02-03 02:40:00,34.6,27.5,30.13,WNW,297,4.0,9.0,75,0.00,,,0.00,Wunderground v.1.15,2013-02-03 07:40:00,
2013-02-03 02:45:00,34.7,27.6,30.13,West,280,4.0,9.0,75,0.00,,,0.00,Wunderground v.1.15,2013-02-03 07:45:00,
2013-02-03 02:50:00,34.7,27.6,30.13,WNW,293,4.0,5.0,75,0.00,,,0.00,Wunderground v.1.15,2013-02-03 07:50:00,
2013-02-03 02:55:00,34.6,27.8,30.13,WNW,298,2.0,8.0,76,0.00,,,0.00,Wunderground v.1.15,2013-02-03 07:55:00,
2013-02-03 03:00:00,34.4,27.6,30.13,WNW,298,3.0,4.0,76,0.00,,,0.00,Wunderground v.1.15,2013-02-03 08:00:00,
2013-02-03 03:05:00,34.3,27.5,30.13,WNW,298,3.0,5.0,76,0.00,,,0.00,Wunderground v.1.15,2013-02-03 08:05:00,
2013-02-03 03:10:00,34.1,27.6,30.13,WNW,298,3.0,5.0,77,0.00,,,0.00,Wunderground v.1.15,2013-02-03 08:10:00,
2013-02-03 03:16:00,34.3,27.8,30.13,WNW,298,4.0,7.0,77,0.00,,,0.00,Wunderground v.1.15,2013-02-03 08:16:00,
2013-02-03 03:21:00,34.0,27.5,30.13,WNW,298,4.0,4.0,77,0.00,,,0.00,Wunderground v.1.15,2013-02-03 08:21:00,
2013-02-03 03:26:00,34.1,27.6,30.13,WNW,300,4.0,8.0,77,0.00,,,0.00,Wunderground v.1.15,2013-02-03 08:26:00,
2013-02-03 03:31:00,34.3,27.8,30.13,WNW,302,6.0,6.0,77,0.00,,,0.00,Wunderground v.1.15,2013-02-03 08:31:00,
2013-02-03 03:36:00,34.4,27.6,30.11,NW,304,5.0,7.0,76,0.00,,,0.00,Wunderground v.1.15,2013-02-03 08:36:00,
2013-02-03 03:41:00,34.6,27.8,30.11,NW,304,2.0,8.0,76,0.00,,,0.00,Wunderground v.1.15,2013-02-03 08:41:00,
2013-02-03 03:46:00,34.7,27.9,30.11,NW,304,3.0,10.0,76,0.00,,,0.00,Wunderground v.1.15,2013-02-03 08:46:00,
2013-02-03 03:51:00,34.7,27.6,30.11,NW,304,3.0,6.0,75,0.00,,,0.00,Wunderground v.1.15,2013-02-03 08:51:00,
2013-02-03 03:56:00,34.7,27.9,30.11,NW,304,3.0,6.0,76,0.00,,,0.00,Wunderground v.1.15,2013-02-03 08:56:00,
2013-02-03 04:01:00,34.6,27.8,30.11,NW,304,4.0,4.0,76,0.00,,,0.00,Wunderground v.1.15,2013-02-03 09:01:00,
2013-02-03 04:06:00,34.4,27.6,30.11,NW,304,0.0,5.0,76,0.00,,,0.00,Wunderground v.1.15,2013-02-03 09:06:00,
2013-02-03 04:11:00,34.4,27.9,30.11,NW,304,3.0,5.0,77,0.00,,,0.00,Wunderground v.1.15,2013-02-03 09:11:00,
2013-02-03 04:16:00,34.4,27.9,30.11,NW,304,1.0,7.0,77,0.00,,,0.00,Wunderground v.1.15,2013-02-03 09:16:00,
2013-02-03 04:22:00,34.3,27.8,30.09,NW,307,3.0,10.0,77,0.00,,,0.00,Wunderground v.1.15,2013-02-03 09:22:00,
2013-02-03 04:27:00,34.3,27.8,30.09,NW,307,4.0,10.0,77,0.00,,,0.00,Wunderground v.1.15,2013-02-03 09:27:00,
2013-02-03 04:32:00,34.3,27.8,30.09,NW,309,3.0,7.0,77,0.00,,,0.00,Wunderground v.1.15,2013-02-03 09:32:00,
2013-02-03 04:37:00,34.3,27.8,30.08,NW,309,4.0,7.0,77,0.00,,,0.00,Wunderground v.1.15,2013-02-03 09:37:00,
2013-02-03 04:41:00,34.3,28.2,30.08,NW,309,0.0,4.0,78,0.00,,,0.00,Wunderground v.1.15,2013-02-03 09:41:00,
2013-02-03 04:47:00,34.3,28.2,30.08,NW,308,2.0,5.0,78,0.00,,,0.00,Wunderground v.1.15,2013-02-03 09:47:00,
2013-02-03 04:52:00,34.1,28.0,30.07,NW,308,3.0,6.0,78,0.00,,,0.00,Wunderground v.1.15,2013-02-03 09:52:00,
2013-02-03 04:57:00,34.1,28.0,30.07,NW,308,4.0,7.0,78,0.00,,,0.00,Wunderground v.1.15,2013-02-03 09:57:00,
2013-02-03 05:02:00,34.1,28.3,30.07,NW,317,3.0,7.0,79,0.00,,,0.00,Wunderground v.1.15,2013-02-03 10:02:00,
2013-02-03 05:07:00,34.3,28.5,30.07,NW,316,5.0,10.0,79,0.00,,,0.00,Wunderground v.1.15,2013-02-03 10:07:00,
2013-02-03 05:12:00,34.6,28.4,30.07,West,276,2.0,5.0,78,0.00,,,0.00,Wunderground v.1.15,2013-02-03 10:12:00,
2013-02-03 05:17:00,34.6,28.4,30.07,WNW,296,5.0,8.0,78,0.00,,,0.00,Wunderground v.1.15,2013-02-03 10:17:00,
2013-02-03 05:22:00,35.0,28.5,30.08,NW,307,4.0,8.0,77,0.00,,,0.00,Wunderground v.1.15,2013-02-03 10:22:00,
2013-02-03 05:27:00,35.2,28.7,30.08,NW,315,4.0,10.0,77,0.00,,,0.00,Wunderground v.1.15,2013-02-03 10:27:00,
2013-02-03 05:32:00,35.2,28.7,30.08,WNW,297,2.0,4.0,77,0.00,,,0.00,Wunderground v.1.15,2013-02-03 10:32:00,
2013-02-03 05:37:00,35.0,28.8,30.06,WNW,297,3.0,5.0,78,0.00,,,0.00,Wunderground v.1.15,2013-02-03 10:37:00,
2013-02-03 05:42:00,34.9,28.7,30.06,WNW,297,2.0,5.0,78,0.00,,,0.00,Wunderground v.1.15,2013-02-03 10:42:00,
2013-02-03 05:47:00,34.9,29.0,30.06,NW,311,5.0,7.0,79,0.00,,,0.00,Wunderground v.1.15,2013-02-03 10:47:00,
2013-02-03 05:52:00,34.7,28.9,30.07,NW,311,1.0,5.0,79,0.00,,,0.00,Wunderground v.1.15,2013-02-03 10:52:00,
2013-02-03 05:57:00,34.7,28.9,30.07,WNW,302,4.0,6.0,79,0.00,,,0.00,Wunderground v.1.15,2013-02-03 10:57:00,
2013-02-03 06:02:00,34.9,29.0,30.07,WNW,302,4.0,6.0,79,0.00,,,0.00,Wunderground v.1.15,2013-02-03 11:02:00,
2013-02-03 06:08:00,34.7,29.2,30.07,WNW,282,1.0,6.0,80,0.00,,,0.00,Wunderground v.1.15,2013-02-03 11:08:00,
2013-02-03 06:13:00,34.6,29.1,30.07,WNW,293,4.0,5.0,80,0.00,,,0.00,Wunderground v.1.15,2013-02-03 11:13:00,
2013-02-03 06:18:00,34.7,29.2,30.07,WNW,300,2.0,5.0,80,0.00,,,0.00,Wunderground v.1.15,2013-02-03 11:18:00,
2013-02-03 06:23:00,34.7,29.2,30.06,NW,307,2.0,6.0,80,0.00,,,0.00,Wunderground v.1.15,2013-02-03 11:23:00,
2013-02-03 06:28:00,34.9,29.4,30.06,NW,306,3.0,6.0,80,0.00,,,0.00,Wunderground v.1.15,2013-02-03 11:28:00,
2013-02-03 06:33:00,35.0,29.5,30.06,NW,305,2.0,5.0,80,0.00,,,0.00,Wunderground v.1.15,2013-02-03 11:33:00,
2013-02-03 06:38:00,35.2,29.6,30.08,NW,311,6.0,7.0,80,0.00,,,0.00,Wunderground v.1.15,2013-02-03 11:38:00,
2013-02-03 06:43:00,35.3,29.7,30.08,NW,311,5.0,5.0,80,0.00,,,0.00,Wunderground v.1.15,2013-02-03 11:43:00,
2013-02-03 06:48:00,35.5,29.9,30.08,NW,311,3.0,6.0,80,0.00,,,0.00,Wunderground v.1.15,2013-02-03 11:48:00,
2013-02-03 06:53:00,35.5,29.9,30.07,NW,311,1.0,4.0,80,0.00,,,0.00,Wunderground v.1.15,2013-02-03 11:53:00,
2013-02-03 06:58:00,35.2,30.3,30.07,NW,311,3.0,6.0,82,0.00,,,0.00,Wunderground v.1.15,2013-02-03 11:58:00,
2013-02-03 07:03:00,34.9,30.6,30.07,NW,311,2.0,3.0,84,0.00,,,0.00,Wunderground v.1.15,2013-02-03 12:03:00,
2013-02-03 07:08:00,34.6,30.8,30.07,NW,311,4.0,5.0,86,0.00,,,0.00,Wunderground v.1.15,2013-02-03 12:08:00,
2013-02-03 07:13:00,34.1,30.6,30.07,NW,311,0.0,2.0,87,0.00,,,0.00,Wunderground v.1.15,2013-02-03 12:13:00,
2013-02-03 07:18:00,33.8,30.6,30.07,NW,311,0.0,3.0,88,0.00,,,0.00,Wunderground v.1.15,2013-02-03 12:18:00,
2013-02-03 07:23:00,33.8,30.9,30.08,NW,311,1.0,2.0,89,0.00,,,0.00,Wunderground v.1.15,2013-02-03 12:23:00,
2013-02-03 07:28:00,33.8,30.9,30.08,NW,311,0.0,3.0,89,0.00,,,0.00,Wunderground v.1.15,2013-02-03 12:28:00,
2013-02-03 07:33:00,33.7,31.1,30.08,NW,311,0.0,3.0,90,0.00,,,0.00,Wunderground v.1.15,2013-02-03 12:33:00,
2013-02-03 07:38:00,33.7,31.1,30.07,NW,311,0.0,3.0,90,0.00,,,0.00,Wunderground v.1.15,2013-02-03 12:38:00,
2013-02-03 07:43:00,33.5,30.9,30.07,NW,311,0.0,3.0,90,0.00,,,0.00,Wunderground v.1.15,2013-02-03 12:43:00,
2013-02-03 07:48:00,33.7,31.4,30.07,NW,311,0.0,4.0,91,0.00,,,0.00,Wunderground v.1.15,2013-02-03 12:48:00,
2013-02-03 07:53:00,33.7,31.4,30.06,NW,311,0.0,3.0,91,0.00,,,0.00,Wunderground v.1.15,2013-02-03 12:53:00,
2013-02-03 07:58:00,33.8,31.2,30.06,NW,311,2.0,3.0,90,0.00,,,0.00,Wunderground v.1.15,2013-02-03 12:58:00,
2013-02-03 08:03:00,33.8,31.5,30.06,NW,311,2.0,2.0,91,0.00,,,0.00,Wunderground v.1.15,2013-02-03 13:03:00,
2013-02-03 08:08:00,34.0,31.6,30.06,NW,311,0.0,2.0,91,0.00,,,0.00,Wunderground v.1.15,2013-02-03 13:08:00,
2013-02-03 08:13:00,34.1,31.5,30.06,NW,311,0.0,4.0,90,0.00,,,0.00,Wunderground v.1.15,2013-02-03 13:13:00,
2013-02-03 08:18:00,34.3,31.7,30.06,NW,311,0.0,4.0,90,0.00,,,0.00,Wunderground v.1.15,2013-02-03 13:18:00,
2013-02-03 08:24:00,34.4,31.8,30.07,NW,311,0.0,1.0,90,0.00,,,0.00,Wunderground v.1.15,2013-02-03 13:24:00,
2013-02-03 08:29:00,34.6,32.0,30.07,NW,311,0.0,1.0,90,0.00,,,0.00,Wunderground v.1.15,2013-02-03 13:29:00,
2013-02-03 08:34:00,34.6,32.0,30.07,NW,311,0.0,1.0,90,0.00,,,0.00,Wunderground v.1.15,2013-02-03 13:34:00,
2013-02-03 08:39:00,34.4,31.8,30.06,NW,311,0.0,1.0,90,0.00,,,0.00,Wunderground v.1.15,2013-02-03 13:39:00,
2013-02-03 08:44:00,34.6,32.0,30.06,NW,311,0.0,3.0,90,0.00,,,0.00,Wunderground v.1.15,2013-02-03 13:44:00,
2013-02-03 08:49:00,34.7,31.8,30.06,NW,311,0.0,3.0,89,0.00,,,0.00,Wunderground v.1.15,2013-02-03 13:49:00,
2013-02-03 08:54:00,35.2,32.3,30.06,NW,311,0.0,3.0,89,0.00,,,0.00,Wunderground v.1.15,2013-02-03 13:54:00,
2013-02-03 08:59:00,35.8,32.6,30.06,NW,311,2.0,4.0,88,0.00,,,0.00,Wunderground v.1.15,2013-02-03 13:59:00,
2013-02-03 09:04:00,36.3,32.5,30.06,NW,311,0.0,4.0,86,0.00,,,0.00,Wunderground v.1.15,2013-02-03 14:04:00,
2013-02-03 09:09:00,37.0,32.9,30.05,NW,311,2.0,4.0,85,0.00,,,0.00,Wunderground v.1.15,2013-02-03 14:09:00,
2013-02-03 09:14:00,37.6,32.9,30.05,NW,309,3.0,5.0,83,0.00,,,0.00,Wunderground v.1.15,2013-02-03 14:14:00,
2013-02-03 09:19:00,38.3,33.3,30.05,WNW,291,5.0,5.0,82,0.00,,,0.00,Wunderground v.1.15,2013-02-03 14:19:00,
2013-02-03 09:24:00,38.9,32.9,30.05,WNW,301,7.0,7.0,79,0.00,,,0.01,Wunderground v.1.15,2013-02-03 14:24:00,
2013-02-03 09:29:00,39.6,33.0,30.05,West,277,5.0,7.0,77,0.00,,,0.01,Wunderground v.1.15,2013-02-03 14:29:00,
2013-02-03 09:34:00,40.3,33.7,30.05,West,268,7.0,9.0,77,0.00,,,0.01,Wunderground v.1.15,2013-02-03 14:34:00,
2013-02-03 09:39:00,40.5,32.5,30.04,WSW,251,10.0,13.0,73,0.00,,,0.01,Wunderground v.1.15,2013-02-03 14:39:00,
2013-02-03 09:44:00,40.6,32.6,30.04,North,356,6.0,12.0,73,0.00,,,0.01,Wunderground v.1.15,2013-02-03 14:44:00,
2013-02-03 09:49:00,41.1,33.1,30.04,WNW,290,9.0,12.0,73,0.00,,,0.01,Wunderground v.1.15,2013-02-03 14:49:00,
2013-02-03 09:54:00,40.9,32.9,30.04,NNW,328,10.0,20.0,73,0.00,,,0.01,Wunderground v.1.15,2013-02-03 14:54:00,
2013-02-03 09:59:00,40.9,32.6,30.04,WNW,300,6.0,20.0,72,0.00,,,0.01,Wunderground v.1.15,2013-02-03 14:59:00,
2013-02-03 10:04:00,40.9,32.2,30.04,WNW,302,7.0,15.0,71,0.00,,,0.01,Wunderground v.1.15,2013-02-03 15:04:00,
2013-02-03 10:09:00,41.1,32.8,30.05,NW,314,9.0,16.0,72,0.00,,,0.01,Wunderground v.1.15,2013-02-03 15:09:00,
2013-02-03 10:14:00,41.3,33.0,30.05,West,271,5.0,13.0,72,0.00,,,0.01,Wunderground v.1.15,2013-02-03 15:14:00,
2013-02-03 10:19:00,41.5,32.8,30.05,West,270,5.0,16.0,71,0.00,,,0.01,Wunderground v.1.15,2013-02-03 15:19:00,
2013-02-03 10:24:00,41.5,32.8,30.05,West,271,12.0,17.0,71,0.00,,,0.01,Wunderground v.1.15,2013-02-03 15:24:00,
2013-02-03 10:29:00,41.5,33.1,30.05,NW,313,6.0,17.0,72,0.00,,,0.01,Wunderground v.1.15,2013-02-03 15:29:00,
2013-02-03 10:34:00,41.5,32.8,30.05,NW,316,10.0,17.0,71,0.00,,,0.01,Wunderground v.1.15,2013-02-03 15:34:00,
2013-02-03 10:39:00,42.1,34.1,30.04,NW,307,6.0,17.0,73,0.00,,,0.01,Wunderground v.1.15,2013-02-03 15:39:00,
2013-02-03 10:44:00,42.3,32.8,30.04,NW,321,13.0,14.0,69,0.00,,,0.01,Wunderground v.1.15,2013-02-03 15:44:00,
2013-02-03 10:49:00,42.1,33.0,30.04,NW,316,10.0,22.0,70,0.00,,,0.01,Wunderground v.1.15,2013-02-03 15:49:00,
2013-02-03 10:54:00,42.2,32.8,30.04,NNW,337,9.0,17.0,69,0.00,,,0.01,Wunderground v.1.15,2013-02-03 15:54:00,
2013-02-03 10:59:00,42.6,32.4,30.04,WNW,294,7.0,20.0,67,0.00,,,0.01,Wunderground v.1.15,2013-02-03 15:59:00,
2013-02-03 11:04:00,43.1,32.9,30.04,WSW,253,9.0,22.0,67,0.00,,,0.01,Wunderground v.1.15,2013-02-03 16:04:00,
2013-02-03 11:09:00,42.9,31.6,30.04,WNW,299,11.0,22.0,64,0.00,,,0.01,Wunderground v.1.15,2013-02-03 16:09:00,
2013-02-03 11:14:00,43.1,32.1,30.04,WNW,299,5.0,18.0,65,0.00,,,0.01,Wunderground v.1.15,2013-02-03 16:14:00,
2013-02-03 11:19:00,43.1,31.4,30.04,NW,320,10.0,21.0,63,0.00,,,0.01,Wunderground v.1.15,2013-02-03 16:19:00,
2013-02-03 11:24:00,43.2,32.2,30.03,NW,321,15.0,21.0,65,0.00,,,0.01,Wunderground v.1.15,2013-02-03 16:24:00,
2013-02-03 11:30:00,43.2,31.1,30.03,NW,310,16.0,16.0,62,0.00,,,0.01,Wunderground v.1.15,2013-02-03 16:30:00,
2013-02-03 11:35:00,43.2,30.6,30.03,NW,321,4.0,18.0,61,0.00,,,0.01,Wunderground v.1.15,2013-02-03 16:35:00,
2013-02-03 11:40:00,43.5,31.3,30.04,West,259,16.0,19.0,62,0.00,,,0.01,Wunderground v.1.15,2013-02-03 16:40:00,
2013-02-03 11:45:00,44.2,31.2,30.04,WNW,290,6.0,19.0,60,0.00,,,0.01,Wunderground v.1.15,2013-02-03 16:45:00,
2013-02-03 11:50:00,44.5,31.9,30.04,NNW,330,7.0,10.0,61,0.00,,,0.01,Wunderground v.1.15,2013-02-03 16:50:00,
2013-02-03 11:55:00,44.1,30.7,30.04,WNW,300,5.0,16.0,59,0.00,,,0.01,Wunderground v.1.15,2013-02-03 16:55:00,
2013-02-03 12:00:00,44.2,30.8,30.04,North,353,9.0,10.0,59,0.00,,,0.01,Wunderground v.1.15,2013-02-03 17:00:00,
2013-02-03 12:05:00,44.2,29.9,30.04,NW,311,14.0,15.0,57,0.00,,,0.01,Wunderground v.1.15,2013-02-03 17:05:00,
2013-02-03 12:10:00,44.1,29.8,30.05,NW,308,5.0,8.0,57,0.00,,,0.01,Wunderground v.1.15,2013-02-03 17:10:00,
2013-02-03 12:15:00,43.8,30.0,30.05,NNW,327,5.0,11.0,58,0.00,,,0.01,Wunderground v.1.15,2013-02-03 17:15:00,
2013-02-03 12:20:00,43.6,29.4,30.05,NW,309,7.0,7.0,57,0.00,,,0.01,Wunderground v.1.15,2013-02-03 17:20:00,
2013-02-03 12:25:00,43.8,29.5,30.05,NW,304,0.0,11.0,57,0.00,,,0.01,Wunderground v.1.15,2013-02-03 17:25:00,
2013-02-03 12:30:00,44.6,29.9,30.05,NW,321,2.0,5.0,56,0.00,,,0.01,Wunderground v.1.15,2013-02-03 17:30:00,
2013-02-03 12:35:00,45.4,29.7,30.05,NW,311,5.0,11.0,54,0.00,,,0.01,Wunderground v.1.15,2013-02-03 17:35:00,
2013-02-03 12:40:00,46.0,29.3,30.05,NW,307,6.0,10.0,52,0.00,,,0.01,Wunderground v.1.15,2013-02-03 17:40:00,
2013-02-03 12:45:00,46.8,31.0,30.05,WNW,294,8.0,11.0,54,0.00,,,0.01,Wunderground v.1.15,2013-02-03 17:45:00,
2013-02-03 12:50:00,46.7,29.5,30.05,West,264,4.0,7.0,51,0.00,,,0.01,Wunderground v.1.15,2013-02-03 17:50:00,
2013-02-03 12:55:00,47.3,30.5,30.05,NW,323,1.0,7.0,52,0.00,,,0.01,Wunderground v.1.15,2013-02-03 17:55:00,
2013-02-03 13:00:00,47.7,30.0,30.05,WNW,302,2.0,5.0,50,0.00,,,0.01,Wunderground v.1.15,2013-02-03 18:00:00,
2013-02-03 13:05:00,46.8,29.1,30.05,NNW,348,4.0,13.0,50,0.00,,,0.01,Wunderground v.1.15,2013-02-03 18:05:00,
2013-02-03 13:10:00,46.4,27.8,30.05,WNW,296,9.0,13.0,48,0.00,,,0.01,Wunderground v.1.15,2013-02-03 18:10:00,
2013-02-03 13:15:00,45.8,27.7,30.05,NW,309,1.0,13.0,49,0.00,,,0.01,Wunderground v.1.15,2013-02-03 18:15:00,
2013-02-03 13:20:00,46.5,28.3,30.05,NW,311,10.0,10.0,49,0.00,,,0.01,Wunderground v.1.15,2013-02-03 18:20:00,
2013-02-03 13:26:00,47.0,28.3,30.05,WNW,302,5.0,12.0,48,0.00,,,0.01,Wunderground v.1.15,2013-02-03 18:26:00,
2013-02-03 13:31:00,46.5,28.3,30.05,NW,312,7.0,14.0,49,0.00,,,0.01,Wunderground v.1.15,2013-02-03 18:31:00,
2013-02-03 13:36:00,47.0,29.3,30.04,NW,310,11.0,14.0,50,0.00,,,0.01,Wunderground v.1.15,2013-02-03 18:36:00,
2013-02-03 13:41:00,46.8,28.1,30.04,North,10,6.0,14.0,48,0.00,,,0.01,Wunderground v.1.15,2013-02-03 18:41:00,
2013-02-03 13:46:00,46.2,27.6,30.04,WNW,302,10.0,16.0,48,0.00,,,0.01,Wunderground v.1.15,2013-02-03 18:46:00,
2013-02-03 13:51:00,46.2,27.6,30.05,West,279,10.0,13.0,48,0.00,,,0.01,Wunderground v.1.15,2013-02-03 18:51:00,
2013-02-03 13:56:00,46.5,28.3,30.05,WNW,302,11.0,13.0,49,0.00,,,0.01,Wunderground v.1.15,2013-02-03 18:56:00,
2013-02-03 14:01:00,46.5,27.8,30.05,WNW,300,5.0,13.0,48,0.00,,,0.01,Wunderground v.1.15,2013-02-03 19:01:00,
2013-02-03 14:06:00,47.3,29.6,30.04,WNW,293,3.0,13.0,50,0.00,,,0.01,Wunderground v.1.15,2013-02-03 19:06:00,
2013-02-03 14:11:00,47.4,29.2,30.04,WNW,302,6.0,10.0,49,0.00,,,0.01,Wunderground v.1.15,2013-02-03 19:11:00,
2013-02-03 14:16:00,47.9,28.6,30.04,NNW,335,9.0,12.0,47,0.00,,,0.01,Wunderground v.1.15,2013-02-03 19:16:00,
2013-02-03 14:21:00,48.0,28.2,30.05,NW,304,3.0,6.0,46,0.00,,,0.01,Wunderground v.1.15,2013-02-03 19:21:00,
2013-02-03 14:26:00,48.8,30.0,30.05,NNW,338,6.0,10.0,48,0.00,,,0.01,Wunderground v.1.15,2013-02-03 19:26:00,
2013-02-03 14:31:00,48.6,28.2,30.05,WNW,297,0.0,10.0,45,0.00,,,0.01,Wunderground v.1.15,2013-02-03 19:31:00,
2013-02-03 14:36:00,48.8,30.0,30.04,NNW,335,9.0,10.0,48,0.00,,,0.01,Wunderground v.1.15,2013-02-03 19:36:00,
2013-02-03 14:41:00,48.5,30.2,30.04,NW,319,5.0,12.0,49,0.00,,,0.01,Wunderground v.1.15,2013-02-03 19:41:00,
2013-02-03 14:46:00,48.5,28.6,30.04,NW,309,4.0,12.0,46,0.00,,,0.01,Wunderground v.1.15,2013-02-03 19:46:00,